{"data":{"norad_id":45072,"intl_designator":"2020-006AE","name":"STARLINK-1168","alt_names":[],"object_type":"PAYLOAD","status":"ACTIVE","operator":null,"country":"US","launch_date":"2020-01-29","launch_site_code":"AFETR","launch_vehicle":null,"mission":null,"orbit_class":"UNKNOWN","rcs_meters":null,"size_class":null,"mass_kg":null,"dimensions":null,"purposes":["comms"],"wikipedia_slug":null,"has_3d_model":false,"image_url":null,"decayed_at":null,"tle_current":{"epoch":"2026-05-24T17:56:58.946208Z","epoch_age_seconds":92956,"freshness":"FRESH","line1":"1 45072U 20006AE  26144.74790447  .00025336  00000+0  77268-3 0  9996","line2":"2 45072  53.1574 264.1217 0002568 322.7620  37.3204 15.33809755348528","mean_motion":15.33809755,"eccentricity":0.0002568,"inclination_deg":53.1574,"raan_deg":264.1217,"arg_perigee_deg":322.762,"mean_anomaly_deg":37.3204,"bstar":0.00077268,"rev_number":34852,"period_min":93.88387284054,"perigee_km":462.70095687013,"apogee_km":466.21531373162,"semimajor_km":6842.5951353009,"source":"CELESTRAK","updated_at":"2026-05-25T13:38:16.379116Z"}}}